DateTimeUTC,F1_A11,F1_S11,BsB_S11,BsG_S11,BsR_S11,BbsB_S11,BbsG_S11,BbsR_S11,BaB_A11,BaG_A11,BaR_A11,Tu_S11,T_S11,Uu_S11,U_S11,P_S11,T1_A11
2021-07-18T16:00:00Z,00000200,20000000,,,,,,,-000.16,-000.28,0000.06,18.4,24.9,11.6,07.8,0672.5,31.0
2021-07-18T16:01:00Z,00000200,20000000,,,,,,,-000.12,0000.05,-000.33,18.4,24.9,11.4,07.7,0672.4,31.0
2021-07-18T16:02:00Z,00000200,20000000,,,,,,,0000.08,-000.10,0000.04,18.4,24.9,11.3,07.6,0672.5,31.0
2021-07-18T16:03:00Z,00000200,60000000,,,,,,,0000.51,0000.42,0000.66,18.4,24.9,11.3,07.6,0672.5,31.0
2021-07-18T16:04:00Z,00000200,40000000,0004.03,0002.83,0001.57,0000.93,0000.44,0000.18,0000.83,0000.63,0000.63,18.4,24.8,11.5,07.8,0673.4,31.1
2021-07-18T16:05:00Z,00000200,00000000,0003.33,0002.95,0002.18,0001.09,0000.52,0000.40,0000.87,0001.14,0000.33,18.5,24.7,11.5,07.8,0673.4,31.0
2021-07-18T16:06:00Z,00000200,00000000,0003.48,0002.49,0001.87,0001.06,0000.64,0000.50,0001.14,0001.08,0000.79,18.5,24.7,11.5,07.8,0673.5,31.0
2021-07-18T16:07:00Z,00000200,00000000,0002.84,0002.82,0001.81,0000.34,0000.56,0000.36,0000.76,0000.74,0000.87,18.5,24.7,11.6,08.0,0673.5,31.0
2021-07-18T16:08:00Z,00000200,00000000,0003.99,0002.74,0002.25,0001.23,0000.62,0000.52,0000.97,0000.85,0000.41,18.5,24.7,11.5,07.9,0673.4,31.0
2021-07-18T16:09:00Z,00000200,00000000,0003.30,0002.85,0001.91,0000.90,0000.42,0000.10,0000.81,0000.72,0000.67,18.5,24.7,11.5,07.9,0673.4,31.0
2021-07-18T16:10:00Z,00000200,00000000,0003.50,0002.24,0001.85,0000.80,0000.46,0000.56,0000.94,0000.60,0000.86,18.5,24.7,11.5,07.9,0673.4,31.0
2021-07-18T16:11:00Z,00000200,00000000,0003.50,0002.94,0001.97,0000.80,0000.33,0000.04,0000.63,0000.74,0000.53,18.6,24.7,11.5,07.9,0673.4,31.0
2021-07-18T16:12:00Z,00000200,00000000,0003.97,0003.11,0001.95,0000.94,0000.46,0000.39,0000.97,0000.96,0000.33,18.6,24.7,11.6,07.9,0673.4,31.0
2021-07-18T16:13:00Z,00000200,00000000,0004.10,0003.34,0001.75,0000.67,0000.48,0000.31,0000.87,0000.51,0001.02,18.5,24.7,11.6,07.9,0673.4,31.0
2021-07-18T16:14:00Z,00000200,00000000,0003.65,0002.93,0001.60,0000.80,0000.52,0000.46,0001.14,0001.23,0000.37,18.5,24.7,11.5,07.9,0673.4,31.0
2021-07-18T16:15:00Z,00000200,00000000,0003.74,0003.08,0001.84,0000.53,0000.59,0000.13,0000.80,0000.58,0000.86,18.5,24.7,11.5,07.9,0673.3,31.0
2021-07-18T16:16:00Z,00000200,00000000,0004.55,0002.95,0002.23,0000.66,0000.75,0000.42,0000.99,0001.17,0000.63,18.6,24.7,11.6,08.0,0673.3,31.0
2021-07-18T16:17:00Z,00000200,00000000,0004.56,0003.20,0002.01,0000.79,0000.61,0000.30,0000.90,0000.99,0000.62,18.6,24.7,11.6,08.0,0673.3,31.0
2021-07-18T16:18:00Z,00000200,00000000,0003.98,0002.91,0002.25,0000.50,0000.66,0000.52,0000.81,0000.56,0000.65,18.6,24.7,11.5,07.9,0673.3,31.0
2021-07-18T16:19:00Z,00000200,00000000,0003.57,0003.28,0002.26,0000.85,0000.37,0000.44,0000.74,0000.85,0000.79,18.5,24.7,11.5,07.9,0673.3,31.0
2021-07-18T16:20:00Z,00000200,00000000,0003.33,0002.68,0001.91,0001.04,0000.61,0000.20,0000.88,0001.03,0000.52,18.6,24.7,11.6,07.9,0673.3,31.0
2021-07-18T16:21:00Z,00000200,00000000,0003.50,0003.18,0002.23,0000.97,0000.71,0000.41,0001.04,0000.59,0000.75,18.6,24.7,11.5,07.9,0673.4,31.0
2021-07-18T16:22:00Z,00000200,00000000,0004.18,0002.74,0001.83,0000.69,0000.82,0000.26,0000.76,0000.63,0000.52,18.6,24.7,11.6,07.9,0673.4,31.0
2021-07-18T16:23:00Z,00000200,00000000,0003.23,0003.08,0002.22,0000.70,0000.64,0000.33,0001.12,0000.83,0000.67,18.6,24.7,11.6,07.9,0673.4,31.0
2021-07-18T16:24:00Z,00000200,00000000,0004.11,0003.43,0001.77,0000.53,0000.65,-000.10,0000.73,0001.11,0000.63,18.6,24.7,11.6,07.9,0673.4,31.0
2021-07-18T16:25:00Z,00000200,00000000,0003.68,0003.16,0001.93,0001.19,0000.67,0000.45,0001.27,0000.66,0001.04,18.6,24.7,11.6,08.0,0673.4,31.0
2021-07-18T16:26:00Z,00000200,00000000,0003.58,0003.35,0002.06,0000.67,0000.65,0000.25,0000.93,0000.98,0000.52,18.6,24.7,11.6,08.0,0673.4,31.0
2021-07-18T16:27:00Z,00000200,00000000,0003.31,0003.18,0002.63,0000.61,0000.66,0000.35,0000.94,0000.60,0000.57,18.6,24.7,11.7,08.0,0673.4,31.0
2021-07-18T16:28:00Z,00000200,00000000,0003.90,0003.09,0001.87,0000.73,0000.66,0000.29,0000.70,0001.05,0000.58,18.6,24.7,11.6,08.0,0673.3,31.0
2021-07-18T16:29:00Z,00000200,00000000,0004.71,0003.31,0002.48,0000.59,0000.63,0000.35,0001.18,0001.00,0000.95,18.6,24.7,11.6,08.0,0673.3,31.0
2021-07-18T16:30:00Z,00000200,00000000,0004.56,0003.42,0002.12,0001.29,0000.63,0000.20,0001.21,0001.16,0000.70,18.6,24.7,11.7,08.0,0673.3,31.0
2021-07-18T16:31:00Z,00000200,00000000,0004.96,0003.74,0002.52,0000.88,0000.54,0000.21,0001.13,0000.99,0000.80,18.6,24.7,11.8,08.1,0673.3,31.0
2021-07-18T16:32:00Z,00000200,00000000,0004.52,0003.78,0002.72,0000.88,0000.63,0000.20,0000.86,0000.84,0000.63,18.6,24.7,11.8,08.1,0673.3,31.0
2021-07-18T16:33:00Z,00000200,00000000,0004.08,0003.56,0002.16,0000.82,0000.95,0000.28,0000.80,0000.72,0001.05,18.6,24.7,11.7,08.0,0673.3,31.0
2021-07-18T16:34:00Z,00000200,00000000,0004.26,0003.59,0002.41,0000.82,0000.78,0000.47,0000.93,0000.95,0000.55,18.6,24.7,11.7,08.1,0673.3,31.0
2021-07-18T16:35:00Z,00000200,00000000,0005.13,0003.70,0002.57,0000.77,0001.09,0000.48,0001.77,0001.27,0000.81,18.6,24.7,11.8,08.1,0673.3,31.0
2021-07-18T16:36:00Z,00000200,00000000,0005.12,0004.01,0002.73,0000.23,0000.63,0000.56,0000.70,0001.16,0000.39,18.6,24.7,11.8,08.1,0673.3,31.0
2021-07-18T16:37:00Z,00000200,00000000,0005.62,0003.81,0002.62,0001.10,0000.64,0000.66,0000.93,0000.75,0000.98,18.6,24.7,11.8,08.1,0673.3,31.0
2021-07-18T16:38:00Z,00000200,00000000,0005.68,0004.08,0002.29,0000.82,0001.02,0000.32,0001.19,0000.97,0000.95,18.6,24.7,11.6,08.0,0673.2,31.1
2021-07-18T16:39:00Z,00000200,00000000,0005.37,0004.39,0002.60,0000.84,0000.79,0000.44,0000.92,0000.84,0000.60,18.6,24.7,11.8,08.1,0673.3,31.0
2021-07-18T16:40:00Z,00000200,00000000,0005.44,0003.91,0002.88,0001.08,0000.77,0000.30,0001.19,0001.33,0001.17,18.6,24.7,11.7,08.1,0673.3,31.0
2021-07-18T16:41:00Z,00000200,00000000,0005.67,0004.06,0002.69,0000.85,0000.68,0000.39,0001.15,0000.85,0000.70,18.6,24.7,11.9,08.2,0673.2,31.0
2021-07-18T16:42:00Z,00000200,00000000,0005.42,0004.08,0002.64,0000.85,0000.54,0000.46,0001.06,0000.94,0000.61,18.6,24.7,11.6,08.0,0673.3,31.0
2021-07-18T16:43:00Z,00000200,00000000,0004.94,0004.22,0002.59,0001.02,0000.62,0000.36,0001.08,0000.81,0000.74,18.6,24.7,11.7,08.0,0673.3,31.0
2021-07-18T16:44:00Z,00000200,00000000,0005.43,0003.78,0002.47,0001.15,0000.77,0000.11,0000.57,0001.02,0000.73,18.6,24.7,11.6,08.0,0673.3,31.0
2021-07-18T16:45:00Z,00000200,00000000,0004.40,0003.24,0002.20,0000.76,0000.88,0000.43,0001.09,0000.82,0000.62,18.6,24.7,11.6,08.0,0673.3,31.0
2021-07-18T16:46:00Z,00000200,00000000,0004.03,0003.67,0002.47,0000.94,0000.61,0000.19,0001.49,0001.18,0000.73,18.6,24.7,11.7,08.0,0673.3,31.0
2021-07-18T16:47:00Z,00000200,00000000,0005.45,0004.14,0002.87,0001.41,0000.61,0000.43,0001.10,0000.70,0000.93,18.6,24.7,11.8,08.1,0673.3,31.0
2021-07-18T16:48:00Z,00000200,00000000,0005.15,0004.01,0002.46,0000.68,0000.88,-000.11,0000.76,0001.18,0000.79,18.6,24.7,11.8,08.1,0673.3,31.0
2021-07-18T16:49:00Z,00000200,00000000,0004.38,0004.09,0002.50,0001.52,0000.56,0000.56,0001.12,0000.93,0000.82,18.6,24.7,11.8,08.1,0673.3,31.0
2021-07-18T16:50:00Z,00000200,00000000,0004.80,0003.48,0002.39,0000.98,0000.58,0000.37,0000.91,0001.13,0000.36,18.6,24.7,11.8,08.1,0673.3,31.1
2021-07-18T16:51:00Z,00000200,00000000,0004.85,0003.86,0002.40,0000.83,0000.68,0000.75,0001.10,0000.66,0001.14,18.6,24.7,11.7,08.1,0673.3,31.0
2021-07-18T16:52:00Z,00000200,00000000,0005.67,0004.24,0002.10,0001.19,0000.89,0000.49,0001.23,0000.66,0001.01,18.6,24.7,11.7,08.0,0673.4,31.0
2021-07-18T16:53:00Z,00000200,00000000,0005.19,0004.04,0002.45,0000.70,0000.80,0000.37,0000.99,0001.24,0000.62,18.6,24.7,11.7,08.1,0673.4,31.0
2021-07-18T16:54:00Z,00000200,00000000,0005.52,0004.13,0002.58,0000.74,0000.74,0000.29,0001.17,0001.26,0000.68,18.6,24.7,11.8,08.2,0673.4,31.0
2021-07-18T16:55:00Z,00000200,00000000,0004.82,0004.29,0002.87,0000.79,0000.63,0000.23,0001.15,0001.20,0000.94,18.6,24.7,11.8,08.2,0673.4,31.1
2021-07-18T16:56:00Z,00000200,00000000,0005.86,0004.15,0002.55,0000.12,0001.00,0000.23,0000.96,0001.16,0000.86,18.6,24.7,11.8,08.1,0673.4,31.0
2021-07-18T16:57:00Z,00000200,40000000,,,,,,,0000.47,-000.01,0000.00,18.6,24.7,11.8,08.1,0673.4,31.0
2021-07-18T16:58:00Z,00000200,60000000,,,,,,,0000.22,-000.20,0000.18,18.5,24.9,11.7,07.9,0672.4,31.0
2021-07-18T16:59:00Z,00000200,20000000,,,,,,,-000.64,-000.02,-000.02,18.5,25.0,11.8,07.9,0672.4,31.0
